CW9181 Weather Reports


Display with metric or nautical units.
time (UTC)temp
F
wind
direction
speed
MPH
gust
MPH
rain 1hr
in
rain 24hr
in
rain mn
in
humidity
%
barometer
mb
20260903213009 74 249 4.0 12.0 0.00 0.00 0.00 61 1013.1
20260903212011 74 245 5.0 11.0 0.00 0.00 0.00 62 1013.1
20260903211010 74 224 5.0 9.0 0.00 0.00 0.00 62 1013.1
20260903210016 73 252 7.0 12.0 0.00 0.00 0.00 62 1013.2
20260903205017 73 198 7.0 13.0 0.00 0.00 0.00 62 1013.1
20260903204011 74 178 5.0 9.0 0.00 0.00 0.00 61 1013.2
20260903203015 74 324 4.0 11.0 0.00 0.00 0.00 62 1013.2
20260903202019 74 247 3.0 10.0 0.00 0.00 0.00 61 1013.3
20260903201036 74 237 4.0 10.0 0.00 0.00 0.00 60 1013.4
20260903200018 74 193 4.0 10.0 0.00 0.00 0.00 60 1013.4
20260903195017 74 178 3.0 8.0 0.00 0.00 0.00 62 1013.6
20260903194022 75 245 5.0 10.0 0.00 0.00 0.00 60 1013.8
20260903193039 75 162 4.0 11.0 0.00 0.00 0.00 60 1013.8
20260903192019 74 230 3.0 9.0 0.00 0.00 0.00 62 1013.9
20260903191018 74 234 3.0 9.0 0.00 0.00 0.00 62 1014.0
20260903190018 74 247 4.0 10.0 0.00 0.00 0.00 63 1014.3
20260903185020 74 174 3.0 9.0 0.00 0.00 0.00 62 1014.3
20260903184037 72 123 5.0 10.0 0.00 0.00 0.00 63 1014.2
20260903183020 73 172 7.0 11.0 0.00 0.00 0.00 63 1014.5
20260903182021 72 179 5.0 8.0 0.00 0.00 0.00 65 1014.5
20260903181040 72 209 4.0 9.0 0.00 0.00 0.00 65 1014.6
20260903180024 71 193 3.0 8.0 0.00 0.00 0.00 67 1014.7
20260903175025 71 228 4.0 11.0 0.00 0.00 0.00 67 1014.8
20260903174008 71 214 4.0 8.0 0.00 0.00 0.00 68 1014.8
20260903173022 69 140 2.0 9.0 0.00 0.00 0.00 71 1014.8
20260903172021 67 177 4.0 7.0 0.00 0.00 0.00 72 1014.9
20260903171008 67 176 4.0 8.0 0.00 0.00 0.00 74 1015.0
20260903170025 66 163 2.0 6.0 0.00 0.00 0.00 75 1015.0
20260903165027 66 174 3.0 10.0 0.00 0.00 0.00 75 1015.0
20260903164033 65 158 3.0 8.0 0.00 0.00 0.00 76 1015.0
20260903163029 65 162 4.0 8.0 0.00 0.00 0.00 76 1015.1
20260903162016 65 157 4.0 9.0 0.00 0.00 0.00 76 1015.2
20260903161040 64 174 3.0 8.0 0.00 0.00 0.00 77 1015.2
20260903160018 64 147 3.0 9.0 0.00 0.00 0.00 77 1015.1
20260903155022 64 161 2.0 9.0 0.00 0.00 0.00 77 1015.3
20260903154008 64 138 2.0 8.0 0.00 0.00 0.00 77 1015.4
20260903153031 64 146 2.0 7.0 0.00 0.00 0.00 77 1015.4
20260903152010 64 171 4.0 8.0 0.00 0.00 0.00 75 1015.3
20260903151029 62 150 5.0 8.0 0.00 0.00 0.00 79 1015.3
20260903150010 61 170 3.0 5.0 0.00 0.00 0.00 81 1015.3
20260903145036 61 135 3.0 6.0 0.00 0.00 0.00 81 1015.3
20260903144040 61 116 4.0 9.0 0.00 0.00 0.00 81 1015.3
20260903143039 60 117 3.0 6.0 0.00 0.00 0.00 82 1015.2
20260903142043 60 136 2.0 7.0 0.00 0.00 0.00 82 1015.2
20260903141020 60 132 3.0 7.0 0.00 0.00 0.00 82 1015.0
20260903140021 60 112 4.0 7.0 0.00 0.00 0.00 83 1014.9
20260903135024 60 135 2.0 7.0 0.00 0.00 0.00 82 1014.9
20260903134044 60 133 4.0 7.0 0.00 0.00 0.00 82 1014.9
20260903133009 60 118 3.0 6.0 0.00 0.00 0.00 82 1014.9
20260903132033 60 126 4.0 6.0 0.00 0.00 0.00 82 1015.0
20260903131014 60 123 3.0 7.0 0.00 0.00 0.00 82 1015.0
20260903130012 60 155 3.0 7.0 0.00 0.00 0.00 82 1015.1
20260903125017 60 150 2.0 9.0 0.00 0.00 0.00 81 1015.1
20260903124022 60 116 5.0 7.0 0.00 0.00 0.00 81 1015.1
20260903123022 61 132 2.0 9.0 0.00 0.00 0.00 81 1015.0
20260903122027 61 149 2.0 7.0 0.00 0.00 0.00 81 1015.0
20260903121008 61 101 3.0 8.0 0.00 0.00 0.00 81 1015.0
20260903120027 61 135 2.0 6.0 0.00 0.00 0.00 81 1015.1
20260903115013 61 136 4.0 8.0 0.00 0.00 0.00 81 1015.1
20260903114016 61 142 5.0 9.0 0.00 0.00 0.00 81 1015.3
20260903113021 61 173 4.0 10.0 0.00 0.00 0.00 81 1015.4
20260903112023 61 143 2.0 7.0 0.00 0.00 0.00 81 1015.5
20260903111007 61 133 3.0 8.0 0.00 0.00 0.00 81 1015.5
20260903110009 61 143 5.0 9.0 0.00 0.00 0.00 81 1015.4
20260903105013 61 153 5.0 10.0 0.00 0.00 0.00 81 1015.5
20260903104016 61 143 4.0 7.0 0.00 0.00 0.00 81 1015.5
20260903103020 61 128 4.0 9.0 0.00 0.00 0.00 81 1015.4
20260903102018 61 143 3.0 9.0 0.00 0.00 0.00 81 1015.4
20260903101020 61 169 4.0 8.0 0.00 0.00 0.00 81 1015.5
20260903100023 61 168 4.0 8.0 0.00 0.00 0.00 80 1015.4
20260903095027 61 127 5.0 9.0 0.00 0.00 0.00 80 1015.5
20260903094024 61 110 4.0 8.0 0.00 0.00 0.00 79 1015.6
20260903093011 61 120 5.0 9.0 0.00 0.00 0.00 79 1015.6
20260903092019 61 154 4.0 7.0 0.00 0.00 0.00 78 1015.7
20260903091021 61 153 3.0 7.0 0.00 0.00 0.00 77 1015.8
20260903090027 61 166 3.0 8.0 0.00 0.00 0.00 77 1015.7
20260903085013 62 169 4.0 8.0 0.00 0.00 0.00 76 1015.7
20260903084037 62 150 3.0 8.0 0.00 0.00 0.00 75 1015.7
20260903083018 62 142 5.0 9.0 0.00 0.00 0.00 74 1015.7
20260903082041 62 152 3.0 8.0 0.00 0.00 0.00 74 1015.8
20260903081019 62 177 3.0 8.0 0.00 0.00 0.00 73 1015.6
20260903080023 63 172 3.0 5.0 0.00 0.00 0.00 71 1015.6
20260903075025 63 138 3.0 6.0 0.00 0.00 0.00 70 1015.7
20260903074007 63 124 3.0 8.0 0.00 0.00 0.00 69 1015.5
20260903073025 64 153 4.0 10.0 0.00 0.00 0.00 69 1015.4
20260903072025 64 151 3.0 7.0 0.00 0.00 0.00 68 1015.5
20260903071008 64 170 3.0 7.0 0.00 0.00 0.00 67 1015.5
20260903070024 65 143 2.0 5.0 0.00 0.00 0.00 67 1015.5
20260903065017 65 161 2.0 5.0 0.00 0.00 0.00 66 1015.5
20260903064018 65 146 3.0 4.0 0.00 0.00 0.00 66 1015.5
20260903063040 65 186 2.0 4.0 0.00 0.00 0.00 65 1015.5
20260903062019 66 157 0.0 4.0 0.00 0.00 0.00 64 1015.4
20260903061021 66 162 2.0 4.0 0.00 0.00 0.00 63 1015.4
20260903060021 66 172 2.0 7.0 0.00 0.00 0.00 63 1015.5
20260903055038 66 166 2.0 5.0 0.00 0.00 0.00 63 1015.5
20260903054019 67 185 2.0 4.0 0.00 0.00 0.00 63 1015.5
20260903053034 67 197 0.0 3.0 0.00 0.00 0.00 62 1015.6
20260903052016 68 138 1.0 3.0 0.00 0.00 0.00 61 1015.5
20260903051017 68 132 2.0 3.0 0.00 0.00 0.00 60 1015.5
20260903050017 68 197 1.0 3.0 0.00 0.00 0.00 59 1015.5
20260903045013 69 130 1.0 3.0 0.00 0.00 0.00 58 1015.6
20260903044016 69 133 2.0 3.0 0.00 0.00 0.00 57 1015.5
20260903043020 69 144 2.0 4.0 0.00 0.00 0.00 57 1015.5
20260903042018 69 170 2.0 3.0 0.00 0.00 0.00 56 1015.5
20260903041018 70 199 1.0 3.0 0.00 0.00 0.00 55 1015.4
20260903040018 70 180 1.0 3.0 0.00 0.00 0.00 54 1015.1
20260903035015 71 241 1.0 4.0 0.00 0.00 0.00 54 1015.0
20260903034013 71 233 1.0 5.0 0.00 0.00 0.00 53 1014.8
20260903033017 71 209 2.0 5.0 0.00 0.00 0.00 54 1014.8
20260903032012 71 260 2.0 5.0 0.00 0.00 0.00 54 1014.8
20260903031012 72 203 1.0 3.0 0.00 0.00 0.00 54 1014.6
20260903030034 72 247 1.0 5.0 0.00 0.00 0.00 54 1014.7
20260903025032 73 216 1.0 3.0 0.00 0.00 0.00 54 1014.7
20260903024012 73 194 1.0 6.0 0.00 0.00 0.00 53 1014.7
20260903023015 74 251 2.0 8.0 0.00 0.00 0.00 53 1014.7
20260903022012 74 239 4.0 10.0 0.00 0.00 0.00 52 1014.8
20260903021017 75 244 2.0 10.0 0.00 0.00 0.00 52 1014.7
20260903020019 75 250 3.0 9.0 0.00 0.00 0.00 52 1014.7
20260903015037 76 226 2.0 7.0 0.00 0.00 0.00 51 1014.7
20260903014038 77 234 3.0 10.0 0.00 0.00 0.00 50 1014.8
20260903013023 77 265 2.0 13.0 0.00 0.00 0.00 50 1014.9
20260903012023 77 251 7.0 9.0 0.00 0.00 0.00 49 1015.0
20260903011044 77 182 3.0 10.0 0.00 0.00 0.00 49 1015.0
20260903010025 76 239 3.0 13.0 0.00 0.00 0.00 50 1014.9
20260903005020 77 132 3.0 10.0 0.00 0.00 0.00 50 1014.9
20260903004046 78 182 3.0 9.0 0.00 0.00 0.00 48 1015.2
20260903003117 79 245 3.0 11.0 0.00 0.00 0.00 47 1015.2
20260903003029 79 245 3.0 11.0 0.00 0.00 0.00 47 1015.2
20260903002024 78 218 4.0 13.0 0.00 0.00 0.00 49 1015.2
20260903001010 78 253 4.0 8.0 0.00 0.00 0.00 50 1015.4
20260903000012 78 234 5.0 10.0 0.00 0.00 0.00 49 1015.4
20260902235026 78 234 6.0 11.0 0.00 0.00 0.00 50 1015.4
20260902234026 77 270 3.0 12.0 0.00 0.00 0.00 50 1015.5
20260902233010 78 188 6.0 13.0 0.00 0.00 0.00 50 1015.5
20260902232025 78 295 5.0 10.0 0.00 0.00 0.00 50 1015.7
20260902231028 78 185 3.0 15.0 0.00 0.00 0.00 50 1015.6
20260902230027 78 289 6.0 12.0 0.00 0.00 0.00 48 1015.6
20260902225009 79 188 4.0 9.0 0.00 0.00 0.00 48 1015.7
20260902224026 79 249 7.0 13.0 0.00 0.00 0.00 49 1016.0
20260902223028 79 196 6.0 12.0 0.00 0.00 0.00 48 1016.0
20260902222010 79 213 5.0 10.0 0.00 0.00 0.00 47 1016.0
20260902221045 78 193 7.0 12.0 0.00 0.00 0.00 49 1016.0
20260902220026 78 265 5.0 11.0 0.00 0.00 0.00 50 1016.1
20260902215027 77 270 6.0 11.0 0.00 0.00 0.00 50 1016.2
20260902214023 76 311 4.0 10.0 0.00 0.00 0.00 50 1016.5